TimePST,TemperatureF,Dew PointF,Humidity,Sea Level PressureIn,VisibilityMPH,Wind Direction,Wind SpeedMPH,Gust SpeedMPH,PrecipitationIn,Events,Conditions,WindDirDegrees,DateUTC
12:15 AM,51.8,15.8,24,30.18,10.0,East,4.6,-,N/A,,Clear,100,2013-01-22 08:15:00
12:35 AM,50.0,14.0,24,30.18,10.0,East,4.6,-,N/A,,Clear,90,2013-01-22 08:35:00
12:55 AM,50.0,12.2,22,30.17,10.0,East,4.6,-,N/A,,Clear,90,2013-01-22 08:55:00
1:15 AM,50.0,12.2,22,30.16,10.0,East,4.6,-,N/A,,Clear,100,2013-01-22 09:15:00
1:35 AM,55.4,6.8,14,30.15,10.0,East,4.6,-,N/A,,Clear,90,2013-01-22 09:35:00
1:55 AM,55.4,5.0,13,30.15,10.0,Calm,Calm,-,N/A,,Clear,0,2013-01-22 09:55:00
2:15 AM,51.8,6.8,16,30.14,10.0,Calm,Calm,-,N/A,,Clear,0,2013-01-22 10:15:00
2:35 AM,55.4,3.2,12,30.14,10.0,Calm,Calm,-,N/A,,Clear,0,2013-01-22 10:35:00
2:55 AM,53.6,5.0,14,30.14,10.0,Calm,Calm,-,N/A,,Clear,0,2013-01-22 10:55:00
3:15 AM,51.8,10.4,19,30.14,10.0,Calm,Calm,-,N/A,,Clear,0,2013-01-22 11:15:00
3:35 AM,50.0,14.0,24,30.14,10.0,Calm,Calm,-,N/A,,Clear,0,2013-01-22 11:35:00
3:55 AM,48.2,14.0,25,30.13,10.0,Calm,Calm,-,N/A,,Clear,0,2013-01-22 11:55:00
4:15 AM,48.2,17.6,30,30.13,10.0,Calm,Calm,-,N/A,,Clear,0,2013-01-22 12:15:00
4:35 AM,48.2,19.4,32,30.14,10.0,Calm,Calm,-,N/A,,Clear,0,2013-01-22 12:35:00
4:55 AM,48.2,17.6,30,30.14,10.0,Calm,Calm,-,N/A,,Clear,0,2013-01-22 12:55:00
5:15 AM,48.2,17.6,30,30.13,10.0,Calm,Calm,-,N/A,,Clear,0,2013-01-22 13:15:00
5:35 AM,50.0,10.4,20,30.13,10.0,ESE,4.6,-,N/A,,Clear,110,2013-01-22 13:35:00
5:50 AM,48.2,12.2,24,30.12,10.0,East,5.8,-,N/A,,Clear,100,2013-01-22 13:50:00
6:15 AM,51.8,6.8,16,30.13,10.0,East,5.8,-,N/A,,Clear,100,2013-01-22 14:15:00
6:35 AM,53.6,1.4,12,30.12,10.0,East,4.6,-,N/A,,Clear,100,2013-01-22 14:35:00
6:55 AM,53.6,1.4,12,30.13,10.0,East,3.5,-,N/A,,Clear,90,2013-01-22 14:55:00
7:15 AM,53.6,-0.4,11,30.13,10.0,Calm,Calm,-,N/A,,Clear,0,2013-01-22 15:15:00
7:35 AM,53.6,-2.2,10,30.13,10.0,Calm,Calm,-,N/A,,Clear,0,2013-01-22 15:35:00
7:55 AM,53.6,-0.4,11,30.14,10.0,Calm,Calm,-,N/A,,Clear,0,2013-01-22 15:55:00
8:15 AM,53.6,1.4,12,30.14,10.0,Calm,Calm,-,N/A,,Clear,0,2013-01-22 16:15:00
8:35 AM,50.0,10.4,20,30.15,10.0,SE,3.5,-,N/A,,Clear,140,2013-01-22 16:35:00
8:55 AM,50.0,14.0,24,30.16,10.0,SE,3.5,-,N/A,,Clear,130,2013-01-22 16:55:00
9:15 AM,53.6,15.8,22,30.17,10.0,SE,3.5,-,N/A,,Clear,130,2013-01-22 17:15:00
9:35 AM,55.4,15.8,21,30.17,10.0,SE,4.6,-,N/A,,Clear,140,2013-01-22 17:35:00
9:55 AM,55.4,15.8,21,30.18,10.0,Calm,Calm,-,N/A,,Clear,0,2013-01-22 17:55:00
10:15 AM,57.2,15.8,20,30.18,10.0,SSE,5.8,-,N/A,,Clear,150,2013-01-22 18:15:00
10:35 AM,57.2,17.6,21,30.18,10.0,SSE,5.8,-,N/A,,Clear,150,2013-01-22 18:35:00
10:55 AM,57.2,19.4,23,30.18,10.0,SSE,5.8,-,N/A,,Clear,150,2013-01-22 18:55:00
11:15 AM,59.0,17.6,20,30.17,10.0,SSE,6.9,-,N/A,,Clear,150,2013-01-22 19:15:00
11:35 AM,59.0,19.4,22,30.16,10.0,SE,5.8,-,N/A,,Clear,140,2013-01-22 19:35:00
11:55 AM,59.0,19.4,22,30.15,10.0,SE,5.8,-,N/A,,Clear,130,2013-01-22 19:55:00
12:15 PM,60.8,19.4,20,30.14,10.0,SSE,5.8,-,N/A,,Clear,150,2013-01-22 20:15:00
12:35 PM,62.6,19.4,19,30.13,10.0,Calm,Calm,-,N/A,,Clear,0,2013-01-22 20:35:00
12:55 PM,62.6,15.8,16,30.12,10.0,SSE,6.9,-,N/A,,Clear,150,2013-01-22 20:55:00
1:15 PM,62.6,19.4,19,30.11,10.0,Calm,Calm,-,N/A,,Clear,0,2013-01-22 21:15:00
1:35 PM,62.6,19.4,19,30.10,10.0,SSE,4.6,-,N/A,,Clear,160,2013-01-22 21:35:00
1:55 PM,62.6,19.4,19,30.10,10.0,Calm,Calm,-,N/A,,Clear,0,2013-01-22 21:55:00
2:15 PM,64.4,19.4,18,30.10,10.0,South,3.5,-,N/A,,Clear,180,2013-01-22 22:15:00
2:35 PM,64.4,19.4,18,30.09,10.0,Calm,Calm,-,N/A,,Clear,0,2013-01-22 22:35:00
2:55 PM,62.6,19.4,19,30.09,10.0,Calm,Calm,-,N/A,,Clear,0,2013-01-22 22:55:00
3:15 PM,62.6,19.4,19,30.09,10.0,South,3.5,-,N/A,,Clear,190,2013-01-22 23:15:00
3:35 PM,60.8,19.4,20,30.09,10.0,Calm,Calm,-,N/A,,Clear,0,2013-01-22 23:35:00
3:50 PM,59.0,21.2,23,30.09,10.0,Calm,Calm,-,N/A,,Clear,0,2013-01-22 23:50:00
4:15 PM,59.0,21.2,23,30.08,10.0,Calm,Calm,-,N/A,,Clear,0,2013-01-23 00:15:00
4:35 PM,59.0,21.2,23,30.08,10.0,Calm,Calm,-,N/A,,Clear,0,2013-01-23 00:35:00
4:55 PM,55.4,28.4,36,30.08,10.0,Calm,Calm,-,N/A,,Clear,0,2013-01-23 00:55:00
5:15 PM,55.4,24.8,31,30.08,10.0,Calm,Calm,-,N/A,,Clear,0,2013-01-23 01:15:00
5:35 PM,55.4,24.8,31,30.09,10.0,Calm,Calm,-,N/A,,Clear,0,2013-01-23 01:35:00
5:55 PM,51.8,24.8,35,30.08,10.0,Calm,Calm,-,N/A,,Clear,0,2013-01-23 01:55:00
7:35 PM,50.0,19.4,30,30.10,10.0,Calm,Calm,-,N/A,,Clear,0,2013-01-23 03:35:00
7:55 PM,50.0,17.6,28,30.10,10.0,Calm,Calm,-,N/A,,Clear,0,2013-01-23 03:55:00
8:15 PM,53.6,19.4,26,30.10,10.0,Calm,Calm,-,N/A,,Clear,0,2013-01-23 04:15:00
8:35 PM,55.4,19.4,25,30.10,10.0,ESE,5.8,-,N/A,,Clear,110,2013-01-23 04:35:00
8:55 PM,53.6,21.2,28,30.10,10.0,ESE,5.8,-,N/A,,Clear,110,2013-01-23 04:55:00
9:15 PM,53.6,24.8,33,30.09,10.0,SE,5.8,-,N/A,,Clear,130,2013-01-23 05:15:00
9:35 PM,53.6,24.8,33,30.10,10.0,ESE,4.6,-,N/A,,Clear,120,2013-01-23 05:35:00
9:55 PM,53.6,23.0,30,30.11,10.0,ESE,3.5,-,N/A,,Clear,120,2013-01-23 05:55:00
10:15 PM,53.6,23.0,30,30.11,10.0,Calm,Calm,-,N/A,,Clear,0,2013-01-23 06:15:00
10:35 PM,53.6,21.2,28,30.11,10.0,ESE,4.6,-,N/A,,Clear,120,2013-01-23 06:35:00
10:55 PM,53.6,17.6,24,30.11,10.0,Calm,Calm,-,N/A,,Clear,0,2013-01-23 06:55:00
11:15 PM,53.6,17.6,24,30.11,10.0,SSE,5.8,-,N/A,,Clear,150,2013-01-23 07:15:00
11:35 PM,53.6,15.8,22,30.11,10.0,Calm,Calm,-,N/A,,Clear,0,2013-01-23 07:35:00
11:55 PM,53.6,14.0,21,30.11,10.0,SE,5.8,-,N/A,,Clear,130,2013-01-23 07:55:00